Time,TemperatureF,DewpointF,PressureIn,WindDirection,WindDirectionDegrees,WindSpeedMPH,WindSpeedGustMPH,Humidity,HourlyPrecipIn,Conditions,Clouds,dailyrainin,SoftwareType,DateUTC
2013-07-23 00:01:00,77.6,69.0,29.75,North,0,0.0,2.5,75,0.02,,,0.00,WUHU216HW,2013-07-23 04:01:00,
2013-07-23 00:02:00,77.6,69.0,29.75,North,0,0.0,2.5,75,0.02,,,0.00,WUHU216HW,2013-07-23 04:02:00,
2013-07-23 00:07:00,76.3,68.6,29.75,NNE,23,0.0,2.5,77,0.12,,,0.10,WUHU216HW,2013-07-23 04:07:00,
2013-07-23 00:12:00,75.6,68.7,29.75,WSW,248,0.0,0.0,79,0.12,,,0.10,WUHU216HW,2013-07-23 04:12:00,
2013-07-23 00:17:00,75.4,69.6,29.74,WSW,248,0.0,0.0,82,0.12,,,0.10,WUHU216HW,2013-07-23 04:17:00,
2013-07-23 00:22:00,75.1,69.3,29.74,WSW,248,0.0,0.0,82,0.12,,,0.10,WUHU216HW,2013-07-23 04:22:00,
2013-07-23 00:27:00,74.9,69.4,29.74,NW,315,0.0,0.0,83,0.12,,,0.10,WUHU216HW,2013-07-23 04:27:00,
2013-07-23 00:32:00,74.5,69.0,29.74,West,270,0.0,0.0,83,0.12,,,0.10,WUHU216HW,2013-07-23 04:32:00,
2013-07-23 00:37:00,74.3,68.9,29.74,West,270,0.0,0.0,83,0.12,,,0.10,WUHU216HW,2013-07-23 04:37:00,
2013-07-23 00:42:00,74.2,69.0,29.73,West,270,0.0,0.0,84,0.12,,,0.10,WUHU216HW,2013-07-23 04:42:00,
2013-07-23 00:47:00,74.2,69.0,29.73,West,270,0.0,0.0,84,0.12,,,0.10,WUHU216HW,2013-07-23 04:47:00,
2013-07-23 00:52:00,74.2,69.4,29.73,North,0,0.0,0.0,85,0.12,,,0.10,WUHU216HW,2013-07-23 04:52:00,
2013-07-23 00:58:00,74.0,69.2,29.73,North,0,0.0,0.0,85,0.10,,,0.10,WUHU216HW,2013-07-23 04:58:00,
2013-07-23 01:03:00,74.0,69.2,29.73,North,0,0.0,0.0,85,0.00,,,0.10,WUHU216HW,2013-07-23 05:03:00,
2013-07-23 01:08:00,73.8,69.0,29.72,North,0,0.0,0.0,85,0.00,,,0.10,WUHU216HW,2013-07-23 05:08:00,
2013-07-23 01:13:00,73.8,69.4,29.72,North,0,0.0,0.0,86,0.00,,,0.10,WUHU216HW,2013-07-23 05:13:00,
2013-07-23 01:18:00,73.8,69.4,29.71,North,0,0.0,0.0,86,0.00,,,0.10,WUHU216HW,2013-07-23 05:18:00,
2013-07-23 01:23:00,73.8,69.8,29.71,NNW,338,0.0,0.0,87,0.00,,,0.10,WUHU216HW,2013-07-23 05:23:00,
2013-07-23 01:28:00,73.8,69.8,29.71,NNW,338,0.0,0.0,87,0.00,,,0.10,WUHU216HW,2013-07-23 05:28:00,
2013-07-23 01:33:00,73.8,69.8,29.71,NNW,338,0.0,0.0,87,0.00,,,0.10,WUHU216HW,2013-07-23 05:33:00,
2013-07-23 01:38:00,73.6,69.6,29.71,NNW,338,0.0,0.0,87,0.00,,,0.10,WUHU216HW,2013-07-23 05:38:00,
2013-07-23 01:43:00,73.6,69.6,29.71,NNW,338,0.0,0.0,87,0.00,,,0.10,WUHU216HW,2013-07-23 05:43:00,
2013-07-23 02:00:00,73.4,69.7,29.70,NW,315,0.0,0.0,88,0.00,,,0.10,WUHU216HW,2013-07-23 06:00:00,
2013-07-23 02:05:00,73.4,69.7,29.70,NW,315,0.0,0.0,88,0.00,,,0.10,WUHU216HW,2013-07-23 06:05:00,
2013-07-23 02:10:00,73.4,70.0,29.70,NW,315,0.0,0.0,89,0.00,,,0.10,WUHU216HW,2013-07-23 06:10:00,
2013-07-23 02:15:00,73.3,69.8,29.70,NW,315,0.0,0.0,89,0.00,,,0.10,WUHU216HW,2013-07-23 06:15:00,
2013-07-23 02:20:00,73.3,69.8,29.70,NW,315,0.0,0.0,89,0.00,,,0.10,WUHU216HW,2013-07-23 06:20:00,
2013-07-23 02:25:00,73.3,69.8,29.70,NW,315,0.0,0.0,89,0.00,,,0.10,WUHU216HW,2013-07-23 06:25:00,
2013-07-23 02:30:00,73.3,69.8,29.70,NW,315,0.0,0.0,89,0.00,,,0.10,WUHU216HW,2013-07-23 06:30:00,
2013-07-23 02:35:00,73.3,69.8,29.70,NW,315,0.0,0.0,89,0.00,,,0.10,WUHU216HW,2013-07-23 06:35:00,
2013-07-23 02:40:00,73.3,69.8,29.70,NW,315,0.0,0.0,89,0.00,,,0.10,WUHU216HW,2013-07-23 06:40:00,
2013-07-23 02:45:00,73.1,69.7,29.70,NW,315,0.0,0.0,89,0.00,,,0.10,WUHU216HW,2013-07-23 06:45:00,
2013-07-23 02:50:00,73.1,69.7,29.69,NW,315,0.0,0.0,89,0.00,,,0.10,WUHU216HW,2013-07-23 06:50:00,
2013-07-23 02:55:00,73.1,69.7,29.69,NW,315,0.0,0.0,89,0.00,,,0.10,WUHU216HW,2013-07-23 06:55:00,
2013-07-23 03:00:00,73.1,69.7,29.69,NW,315,0.0,0.0,89,0.00,,,0.10,WUHU216HW,2013-07-23 07:00:00,
2013-07-23 03:05:00,73.1,69.3,29.69,NW,315,0.0,0.0,88,0.00,,,0.10,WUHU216HW,2013-07-23 07:05:00,
2013-07-23 03:10:00,73.1,69.7,29.69,NW,315,0.0,0.0,89,0.00,,,0.10,WUHU216HW,2013-07-23 07:10:00,
2013-07-23 03:15:00,73.1,69.7,29.68,NW,315,0.0,0.0,89,0.00,,,0.10,WUHU216HW,2013-07-23 07:15:00,
2013-07-23 03:20:00,73.1,69.7,29.69,NW,315,0.0,0.0,89,0.00,,,0.10,WUHU216HW,2013-07-23 07:20:00,
2013-07-23 03:25:00,73.1,69.7,29.69,NW,315,0.0,0.0,89,0.00,,,0.10,WUHU216HW,2013-07-23 07:25:00,
2013-07-23 03:30:00,73.1,69.7,29.68,NW,315,0.0,0.0,89,0.00,,,0.10,WUHU216HW,2013-07-23 07:30:00,
2013-07-23 03:35:00,73.1,69.7,29.68,NW,315,0.0,0.0,89,0.00,,,0.10,WUHU216HW,2013-07-23 07:35:00,
2013-07-23 03:40:00,73.1,70.0,29.68,NW,315,0.0,0.0,90,0.00,,,0.10,WUHU216HW,2013-07-23 07:40:00,
2013-07-23 03:45:00,73.1,70.0,29.68,NW,315,0.0,0.0,90,0.00,,,0.10,WUHU216HW,2013-07-23 07:45:00,
2013-07-23 03:50:00,73.3,70.5,29.68,NW,315,0.0,0.0,91,0.00,,,0.10,WUHU216HW,2013-07-23 07:50:00,
2013-07-23 03:55:00,73.4,70.7,29.67,NW,315,0.0,0.0,91,0.00,,,0.10,WUHU216HW,2013-07-23 07:55:00,
2013-07-23 04:00:00,73.4,70.7,29.68,NW,315,0.0,0.0,91,0.00,,,0.10,WUHU216HW,2013-07-23 08:00:00,
2013-07-23 04:06:00,73.4,70.7,29.68,NW,315,0.0,0.0,91,0.00,,,0.10,WUHU216HW,2013-07-23 08:06:00,
2013-07-23 04:11:00,73.6,70.8,29.68,NW,315,0.0,0.0,91,0.00,,,0.10,WUHU216HW,2013-07-23 08:11:00,
2013-07-23 04:16:00,73.8,71.0,29.67,NW,315,0.0,0.0,91,0.00,,,0.10,WUHU216HW,2013-07-23 08:16:00,
2013-07-23 04:21:00,73.8,71.0,29.68,NW,315,0.0,0.0,91,0.00,,,0.10,WUHU216HW,2013-07-23 08:21:00,
2013-07-23 04:26:00,73.8,71.0,29.68,NW,315,0.0,0.0,91,0.00,,,0.10,WUHU216HW,2013-07-23 08:26:00,
2013-07-23 04:31:00,73.8,71.4,29.68,SSW,203,0.0,0.0,92,0.00,,,0.10,WUHU216HW,2013-07-23 08:31:00,
2013-07-23 04:36:00,74.0,71.6,29.68,SSW,203,0.0,0.0,92,0.00,,,0.10,WUHU216HW,2013-07-23 08:36:00,
2013-07-23 04:41:00,74.0,71.6,29.68,SSW,203,0.0,0.0,92,0.00,,,0.10,WUHU216HW,2013-07-23 08:41:00,
2013-07-23 04:46:00,74.0,71.6,29.68,SSW,203,0.0,0.0,92,0.00,,,0.10,WUHU216HW,2013-07-23 08:46:00,
2013-07-23 04:51:00,74.0,71.6,29.68,SSW,203,0.0,0.0,92,0.00,,,0.10,WUHU216HW,2013-07-23 08:51:00,
2013-07-23 04:56:00,74.0,71.6,29.68,SSW,203,0.0,0.0,92,0.00,,,0.10,WUHU216HW,2013-07-23 08:56:00,
2013-07-23 05:01:00,74.0,71.6,29.68,SSW,203,0.0,0.0,92,0.00,,,0.10,WUHU216HW,2013-07-23 09:01:00,
2013-07-23 05:06:00,74.2,71.7,29.67,SSW,203,0.0,0.0,92,0.00,,,0.10,WUHU216HW,2013-07-23 09:06:00,
2013-07-23 05:11:00,74.2,71.7,29.67,SSW,203,0.0,0.0,92,0.00,,,0.10,WUHU216HW,2013-07-23 09:11:00,
2013-07-23 05:16:00,74.2,71.7,29.68,SSW,203,0.0,0.0,92,0.00,,,0.10,WUHU216HW,2013-07-23 09:16:00,
2013-07-23 05:21:00,74.2,71.7,29.68,SSW,203,0.0,0.0,92,0.00,,,0.10,WUHU216HW,2013-07-23 09:21:00,
2013-07-23 05:26:00,74.2,71.7,29.68,SSW,203,0.0,0.0,92,0.00,,,0.10,WUHU216HW,2013-07-23 09:26:00,
2013-07-23 05:31:00,74.2,71.7,29.67,SSW,203,0.0,0.0,92,0.00,,,0.10,WUHU216HW,2013-07-23 09:31:00,
2013-07-23 05:36:00,74.2,71.7,29.67,SSW,203,0.0,0.0,92,0.00,,,0.10,WUHU216HW,2013-07-23 09:36:00,
2013-07-23 05:41:00,74.2,71.7,29.67,SSW,203,0.0,0.0,92,0.00,,,0.10,WUHU216HW,2013-07-23 09:41:00,
2013-07-23 05:46:00,74.2,71.7,29.67,SSW,203,0.0,0.0,92,0.00,,,0.10,WUHU216HW,2013-07-23 09:46:00,
2013-07-23 05:51:00,74.2,71.7,29.67,SSW,203,0.0,0.0,92,0.00,,,0.10,WUHU216HW,2013-07-23 09:51:00,
2013-07-23 05:56:00,74.2,71.7,29.67,SSW,203,0.0,0.0,92,0.00,,,0.10,WUHU216HW,2013-07-23 09:56:00,
2013-07-23 06:01:00,74.2,71.7,29.67,SSW,203,0.0,0.0,92,0.00,,,0.10,WUHU216HW,2013-07-23 10:01:00,
2013-07-23 06:06:00,74.2,71.7,29.67,SSW,203,0.0,0.0,92,0.00,,,0.10,WUHU216HW,2013-07-23 10:06:00,
2013-07-23 06:11:00,74.3,71.9,29.67,SSW,203,0.0,0.0,92,0.00,,,0.10,WUHU216HW,2013-07-23 10:11:00,
2013-07-23 06:16:00,74.3,71.9,29.67,SSW,203,0.0,0.0,92,0.00,,,0.10,WUHU216HW,2013-07-23 10:16:00,
2013-07-23 06:21:00,74.5,72.1,29.67,SSW,203,0.0,0.0,92,0.00,,,0.10,WUHU216HW,2013-07-23 10:21:00,
2013-07-23 06:26:00,74.5,72.1,29.67,SSW,203,0.0,0.0,92,0.00,,,0.10,WUHU216HW,2013-07-23 10:26:00,
2013-07-23 06:31:00,74.5,72.1,29.68,SSW,203,0.0,0.0,92,0.00,,,0.10,WUHU216HW,2013-07-23 10:31:00,
2013-07-23 06:36:00,74.7,72.3,29.68,SSW,203,0.0,0.0,92,0.00,,,0.10,WUHU216HW,2013-07-23 10:36:00,
2013-07-23 06:41:00,74.7,72.3,29.68,SSW,203,0.0,0.0,92,0.00,,,0.10,WUHU216HW,2013-07-23 10:41:00,
2013-07-23 06:46:00,74.7,72.3,29.68,SSW,203,0.0,0.0,92,0.00,,,0.10,WUHU216HW,2013-07-23 10:46:00,
2013-07-23 06:51:00,74.5,72.1,29.68,SSW,203,0.0,0.0,92,0.00,,,0.10,WUHU216HW,2013-07-23 10:51:00,
2013-07-23 06:56:00,74.7,72.3,29.68,SSW,203,0.2,0.2,92,0.00,,,0.10,WUHU216HW,2013-07-23 10:56:00,
2013-07-23 07:01:00,74.9,72.5,29.68,NNW,338,0.0,0.2,92,0.00,,,0.10,WUHU216HW,2013-07-23 11:01:00,
2013-07-23 07:06:00,74.9,72.5,29.68,East,90,0.0,0.2,92,0.00,,,0.10,WUHU216HW,2013-07-23 11:06:00,
2013-07-23 07:11:00,75.2,72.8,29.69,East,90,0.0,0.0,92,0.00,,,0.10,WUHU216HW,2013-07-23 11:11:00,
2013-07-23 07:16:00,75.2,72.8,29.69,East,90,0.0,0.0,92,0.00,,,0.10,WUHU216HW,2013-07-23 11:16:00,
2013-07-23 07:21:00,75.2,72.8,29.69,ENE,68,0.0,0.0,92,0.00,,,0.10,WUHU216HW,2013-07-23 11:21:00,
2013-07-23 07:26:00,75.2,72.5,29.69,ENE,68,0.0,0.0,91,0.00,,,0.10,WUHU216HW,2013-07-23 11:26:00,
2013-07-23 07:31:00,75.4,72.6,29.69,NE,45,0.0,0.0,91,0.00,,,0.10,WUHU216HW,2013-07-23 11:31:00,
2013-07-23 07:36:00,75.4,72.6,29.69,NNW,338,2.0,2.0,91,0.00,,,0.10,WUHU216HW,2013-07-23 11:36:00,
2013-07-23 07:41:00,75.6,72.5,29.69,North,0,0.0,2.0,90,0.00,,,0.10,WUHU216HW,2013-07-23 11:41:00,
2013-07-23 07:46:00,75.6,72.5,29.69,North,0,0.0,2.0,90,0.00,,,0.10,WUHU216HW,2013-07-23 11:46:00,
2013-07-23 07:51:00,75.8,72.4,29.69,North,0,0.0,0.0,89,0.00,,,0.10,WUHU216HW,2013-07-23 11:51:00,
2013-07-23 07:56:00,75.8,72.4,29.69,North,0,0.0,0.0,89,0.00,,,0.10,WUHU216HW,2013-07-23 11:56:00,
2013-07-23 08:01:00,75.6,72.2,29.69,NNE,23,0.0,0.0,89,0.00,,,0.10,WUHU216HW,2013-07-23 12:01:00,
2013-07-23 08:06:00,75.6,72.2,29.69,NNW,338,0.0,0.0,89,0.00,,,0.10,WUHU216HW,2013-07-23 12:06:00,
2013-07-23 08:11:00,76.0,72.5,29.69,North,0,0.0,0.0,89,0.00,,,0.10,WUHU216HW,2013-07-23 12:11:00,
2013-07-23 08:16:00,76.1,72.7,29.69,North,0,0.0,0.0,89,0.00,,,0.10,WUHU216HW,2013-07-23 12:16:00,
2013-07-23 08:22:00,76.3,72.9,29.69,SE,135,0.0,0.0,89,0.00,,,0.10,WUHU216HW,2013-07-23 12:22:00,
2013-07-23 08:27:00,76.3,72.5,29.69,NNE,23,0.0,0.0,88,0.00,,,0.10,WUHU216HW,2013-07-23 12:27:00,
2013-07-23 08:32:00,76.5,72.4,29.69,NE,45,0.2,0.2,87,0.00,,,0.10,WUHU216HW,2013-07-23 12:32:00,
2013-07-23 08:37:00,76.7,72.5,29.69,SSE,158,0.0,0.2,87,0.00,,,0.10,WUHU216HW,2013-07-23 12:37:00,
2013-07-23 08:42:00,77.4,73.3,29.69,North,0,0.0,0.2,87,0.00,,,0.10,WUHU216HW,2013-07-23 12:42:00,
2013-07-23 08:47:00,77.8,73.3,29.69,North,0,0.0,0.0,86,0.00,,,0.10,WUHU216HW,2013-07-23 12:47:00,
2013-07-23 08:52:00,77.8,72.9,29.69,SW,225,0.4,0.4,85,0.00,,,0.10,WUHU216HW,2013-07-23 12:52:00,
2013-07-23 08:57:00,77.6,72.7,29.69,SSW,203,0.0,3.4,85,0.00,,,0.10,WUHU216HW,2013-07-23 12:57:00,
2013-07-23 09:02:00,77.6,72.4,29.68,SSW,203,0.4,3.4,84,0.00,,,0.10,WUHU216HW,2013-07-23 13:02:00,
2013-07-23 09:07:00,77.6,72.4,29.68,SSW,203,0.4,0.4,84,0.00,,,0.10,WUHU216HW,2013-07-23 13:07:00,
2013-07-23 09:12:00,77.6,72.4,29.68,SSW,203,0.4,0.4,84,0.00,,,0.10,WUHU216HW,2013-07-23 13:12:00,
2013-07-23 09:34:00,79.4,73.1,29.68,West,270,0.0,0.0,81,0.00,,,0.10,WUHU216HW,2013-07-23 13:34:00,
2013-07-23 09:39:00,79.7,73.5,29.68,WSW,248,0.7,1.1,81,0.00,,,0.10,WUHU216HW,2013-07-23 13:39:00,
2013-07-23 09:44:00,80.3,73.6,29.68,South,180,0.0,1.1,80,0.00,,,0.10,WUHU216HW,2013-07-23 13:44:00,
2013-07-23 09:49:00,80.3,73.6,29.68,South,180,0.0,0.9,80,0.00,,,0.10,WUHU216HW,2013-07-23 13:49:00,
2013-07-23 10:00:00,81.2,73.4,29.68,South,180,1.3,1.3,77,0.00,,,0.10,WUHU216HW,2013-07-23 14:00:00,
2013-07-23 10:05:00,81.5,73.3,29.68,North,0,1.8,1.8,76,0.00,,,0.10,WUHU216HW,2013-07-23 14:05:00,
2013-07-23 10:10:00,81.7,73.5,29.68,ESE,113,0.2,1.8,76,0.00,,,0.10,WUHU216HW,2013-07-23 14:10:00,
2013-07-23 10:15:00,82.1,73.8,29.68,NNE,23,0.9,1.8,76,0.00,,,0.10,WUHU216HW,2013-07-23 14:15:00,
2013-07-23 10:20:00,82.4,74.2,29.68,WNW,293,0.4,0.9,76,0.00,,,0.10,WUHU216HW,2013-07-23 14:20:00,
2013-07-23 10:25:00,83.0,74.3,29.68,SW,225,2.0,2.0,75,0.00,,,0.10,WUHU216HW,2013-07-23 14:25:00,
2013-07-23 10:30:00,83.2,73.2,29.68,SW,225,2.2,2.2,72,0.00,,,0.10,WUHU216HW,2013-07-23 14:30:00,
2013-07-23 10:35:00,83.5,73.9,29.68,SSW,203,1.6,2.2,73,0.00,,,0.10,WUHU216HW,2013-07-23 14:35:00,
2013-07-23 10:40:00,84.6,74.6,29.68,SE,135,0.0,2.2,72,0.00,,,0.10,WUHU216HW,2013-07-23 14:40:00,
2013-07-23 10:45:00,85.9,74.6,29.68,SSW,203,2.7,2.7,69,0.00,,,0.10,WUHU216HW,2013-07-23 14:45:00,
2013-07-23 10:50:00,86.0,73.8,29.67,SSW,203,1.1,2.7,67,0.00,,,0.10,WUHU216HW,2013-07-23 14:50:00,
2013-07-23 10:55:00,86.0,72.9,29.67,SE,135,3.6,3.6,65,0.00,,,0.10,WUHU216HW,2013-07-23 14:55:00,
2013-07-23 11:00:00,86.2,73.5,29.67,SE,135,3.1,3.6,66,0.00,,,0.10,WUHU216HW,2013-07-23 15:00:00,
2013-07-23 11:05:00,86.6,73.5,29.68,ESE,113,0.4,3.6,65,0.00,,,0.10,WUHU216HW,2013-07-23 15:05:00,
2013-07-23 11:10:00,86.8,73.6,29.68,North,0,3.4,3.4,65,0.00,,,0.10,WUHU216HW,2013-07-23 15:10:00,
2013-07-23 11:15:00,86.6,73.0,29.67,NNW,338,0.7,3.4,64,0.00,,,0.10,WUHU216HW,2013-07-23 15:15:00,
2013-07-23 11:20:00,87.1,73.9,29.68,South,180,2.0,3.4,65,0.00,,,0.10,WUHU216HW,2013-07-23 15:20:00,
2013-07-23 11:25:00,87.8,73.3,29.68,SW,225,0.4,2.0,62,0.00,,,0.10,WUHU216HW,2013-07-23 15:25:00,
2013-07-23 11:30:00,87.1,72.5,29.67,ESE,113,1.1,1.1,62,0.00,,,0.10,WUHU216HW,2013-07-23 15:30:00,
2013-07-23 11:35:00,86.2,72.2,29.67,South,180,1.8,1.8,63,0.00,,,0.10,WUHU216HW,2013-07-23 15:35:00,
2013-07-23 11:40:00,85.7,72.1,29.67,NNE,23,0.0,1.8,64,0.00,,,0.10,WUHU216HW,2013-07-23 15:40:00,
2013-07-23 11:45:00,87.7,74.0,29.67,NE,45,2.2,2.2,64,0.00,,,0.10,WUHU216HW,2013-07-23 15:45:00,
2013-07-23 11:50:00,88.2,74.1,29.67,NNW,338,1.8,2.5,63,0.00,,,0.10,WUHU216HW,2013-07-23 15:50:00,
2013-07-23 11:55:00,88.9,73.8,29.67,SSW,203,1.3,2.5,61,0.00,,,0.10,WUHU216HW,2013-07-23 15:55:00,
2013-07-23 12:00:00,88.6,73.9,29.67,North,0,0.4,1.3,62,0.00,,,0.10,WUHU216HW,2013-07-23 16:00:00,
2013-07-23 12:05:00,88.0,73.5,29.67,NW,315,2.2,2.2,62,0.00,,,0.10,WUHU216HW,2013-07-23 16:05:00,
2013-07-23 12:10:00,87.8,72.4,29.67,North,0,0.9,2.2,60,0.00,,,0.10,WUHU216HW,2013-07-23 16:10:00,
2013-07-23 12:15:00,87.1,72.1,29.68,East,90,0.4,1.8,61,0.00,,,0.10,WUHU216HW,2013-07-23 16:15:00,
2013-07-23 12:20:00,86.2,71.6,29.68,North,0,0.2,0.4,62,0.00,,,0.10,WUHU216HW,2013-07-23 16:20:00,
2013-07-23 12:25:00,86.0,72.0,29.67,North,0,0.4,0.4,63,0.00,,,0.10,WUHU216HW,2013-07-23 16:25:00,
2013-07-23 12:30:00,87.3,72.7,29.67,West,270,1.1,2.9,62,0.00,,,0.10,WUHU216HW,2013-07-23 16:30:00,
2013-07-23 12:35:00,87.8,72.8,29.68,SE,135,0.2,2.9,61,0.00,,,0.10,WUHU216HW,2013-07-23 16:35:00,
2013-07-23 12:40:00,88.7,72.6,29.67,NE,45,1.1,2.5,59,0.00,,,0.10,WUHU216HW,2013-07-23 16:40:00,
2013-07-23 12:45:00,88.9,71.7,29.67,West,270,1.8,2.5,57,0.00,,,0.10,WUHU216HW,2013-07-23 16:45:00,
2013-07-23 12:50:00,89.3,72.5,29.67,SW,225,1.1,1.8,58,0.00,,,0.10,WUHU216HW,2013-07-23 16:50:00,
2013-07-23 12:55:00,88.7,71.6,29.67,NE,45,0.4,1.1,57,0.00,,,0.10,WUHU216HW,2013-07-23 16:55:00,
2013-07-23 13:00:00,89.1,72.5,29.66,SSW,203,0.2,0.9,58,0.00,,,0.10,WUHU216HW,2013-07-23 17:00:00,
2013-07-23 13:05:00,89.6,72.9,29.66,ESE,113,1.8,1.8,58,0.00,,,0.10,WUHU216HW,2013-07-23 17:05:00,
2013-07-23 13:10:00,90.2,72.8,29.66,NNE,23,2.9,2.9,57,0.00,,,0.10,WUHU216HW,2013-07-23 17:10:00,
2013-07-23 13:15:00,89.6,71.8,29.66,SW,225,0.4,2.9,56,0.00,,,0.10,WUHU216HW,2013-07-23 17:15:00,
2013-07-23 13:20:00,88.2,70.6,29.66,NNE,23,0.0,2.9,56,0.00,,,0.10,WUHU216HW,2013-07-23 17:20:00,
2013-07-23 13:25:00,87.3,70.7,29.66,SW,225,1.1,2.2,58,0.00,,,0.10,WUHU216HW,2013-07-23 17:25:00,
2013-07-23 13:30:00,87.3,71.3,29.66,SW,225,0.4,1.1,59,0.00,,,0.10,WUHU216HW,2013-07-23 17:30:00,
2013-07-23 13:35:00,88.4,72.3,29.66,NNE,23,1.1,1.1,59,0.00,,,0.10,WUHU216HW,2013-07-23 17:35:00,
2013-07-23 13:41:00,88.7,72.1,29.66,SSW,203,1.3,1.3,58,0.00,,,0.10,WUHU216HW,2013-07-23 17:41:00,
2013-07-23 13:46:00,88.7,71.0,29.66,SSW,203,2.5,2.5,56,0.00,,,0.10,WUHU216HW,2013-07-23 17:46:00,
2013-07-23 13:51:00,88.2,71.7,29.66,NNW,338,0.7,2.5,58,0.00,,,0.10,WUHU216HW,2013-07-23 17:51:00,
2013-07-23 13:56:00,88.4,71.7,29.66,SW,225,1.6,1.6,58,0.00,,,0.10,WUHU216HW,2013-07-23 17:56:00,
2013-07-23 14:01:00,88.2,71.1,29.66,SW,225,1.8,1.8,57,0.00,,,0.10,WUHU216HW,2013-07-23 18:01:00,
2013-07-23 14:06:00,87.5,70.4,29.66,NE,45,1.1,1.8,57,0.00,,,0.10,WUHU216HW,2013-07-23 18:06:00,
2013-07-23 14:11:00,86.8,70.2,29.66,ENE,68,1.8,1.8,58,0.00,,,0.10,WUHU216HW,2013-07-23 18:11:00,
2013-07-23 14:16:00,86.4,70.9,29.66,ESE,113,0.7,2.0,60,0.00,,,0.10,WUHU216HW,2013-07-23 18:16:00,
2013-07-23 14:21:00,86.4,70.9,29.66,NE,45,0.9,2.0,60,0.00,,,0.10,WUHU216HW,2013-07-23 18:21:00,
2013-07-23 14:26:00,86.8,71.3,29.66,SSE,158,0.7,0.9,60,0.00,,,0.10,WUHU216HW,2013-07-23 18:26:00,
2013-07-23 14:32:00,87.3,70.7,29.66,SW,225,1.1,1.1,58,0.00,,,0.10,WUHU216HW,2013-07-23 18:32:00,
2013-07-23 14:37:00,87.1,70.6,29.66,East,90,2.0,4.7,58,0.00,,,0.10,WUHU216HW,2013-07-23 18:37:00,
2013-07-23 14:42:00,87.1,70.6,29.66,SSE,158,0.7,4.7,58,0.00,,,0.10,WUHU216HW,2013-07-23 18:42:00,
2013-07-23 14:47:00,87.1,69.5,29.66,ENE,68,1.6,4.0,56,0.00,,,0.10,WUHU216HW,2013-07-23 18:47:00,
2013-07-23 14:52:00,87.3,69.7,29.66,NNW,338,5.8,5.8,56,0.00,,,0.10,WUHU216HW,2013-07-23 18:52:00,
2013-07-23 14:57:00,87.5,70.4,29.66,NW,315,1.1,5.8,57,0.00,,,0.10,WUHU216HW,2013-07-23 18:57:00,
2013-07-23 15:03:00,86.8,69.7,29.66,West,270,0.4,2.5,57,0.00,,,0.10,WUHU216HW,2013-07-23 19:03:00,
2013-07-23 15:08:00,86.4,69.8,29.66,NE,45,1.1,2.5,58,0.00,,,0.10,WUHU216HW,2013-07-23 19:08:00,
2013-07-23 15:13:00,85.9,69.8,29.66,SSW,203,0.0,2.5,59,0.00,,,0.10,WUHU216HW,2013-07-23 19:13:00,
2013-07-23 15:18:00,86.0,70.0,29.66,NNE,23,1.1,2.5,59,0.00,,,0.10,WUHU216HW,2013-07-23 19:18:00,
2013-07-23 15:23:00,85.9,69.8,29.66,South,180,0.7,1.1,59,0.00,,,0.10,WUHU216HW,2013-07-23 19:23:00,
2013-07-23 15:28:00,86.0,70.6,29.66,North,0,0.4,1.1,60,0.00,,,0.10,WUHU216HW,2013-07-23 19:28:00,
2013-07-23 15:33:00,86.0,70.6,29.66,North,0,0.4,0.7,60,0.00,,,0.10,WUHU216HW,2013-07-23 19:33:00,
2013-07-23 15:55:00,89.6,70.2,29.65,NE,45,2.9,2.9,53,0.00,,,0.10,WUHU216HW,2013-07-23 19:55:00,
2013-07-23 16:01:00,90.0,70.6,29.64,NE,45,1.3,2.9,53,0.00,,,0.10,WUHU216HW,2013-07-23 20:01:00,
2013-07-23 16:06:00,90.0,70.0,29.64,South,180,2.7,2.7,52,0.00,,,0.10,WUHU216HW,2013-07-23 20:06:00,
2013-07-23 16:11:00,89.6,70.7,29.64,SW,225,0.4,2.7,54,0.00,,,0.10,WUHU216HW,2013-07-23 20:11:00,
2013-07-23 16:16:00,89.5,70.6,29.65,SSW,203,1.3,2.7,54,0.00,,,0.10,WUHU216HW,2013-07-23 20:16:00,
2013-07-23 16:22:00,89.5,70.6,29.64,SE,135,1.1,1.3,54,0.00,,,0.10,WUHU216HW,2013-07-23 20:22:00,
2013-07-23 16:27:00,89.5,70.0,29.64,SSW,203,1.1,1.3,53,0.00,,,0.10,WUHU216HW,2013-07-23 20:27:00,
2013-07-23 16:32:00,89.5,70.6,29.64,SE,135,0.4,1.1,54,0.00,,,0.10,WUHU216HW,2013-07-23 20:32:00,
2013-07-23 16:37:00,90.4,71.4,29.64,South,180,1.6,1.6,54,0.00,,,0.10,WUHU216HW,2013-07-23 20:37:00,
2013-07-23 16:43:00,90.7,71.2,29.63,WSW,248,2.5,2.5,53,0.00,,,0.10,WUHU216HW,2013-07-23 20:43:00,
2013-07-23 16:48:00,90.9,71.4,29.63,ENE,68,2.2,2.5,53,0.00,,,0.10,WUHU216HW,2013-07-23 20:48:00,
2013-07-23 16:53:00,90.9,70.8,29.64,ENE,68,0.4,2.5,52,0.00,,,0.10,WUHU216HW,2013-07-23 20:53:00,
2013-07-23 16:58:00,90.9,70.3,29.64,SSW,203,2.9,2.9,51,0.00,,,0.10,WUHU216HW,2013-07-23 20:58:00,
2013-07-23 17:03:00,90.7,70.1,29.63,SSW,203,3.6,3.6,51,0.00,,,0.10,WUHU216HW,2013-07-23 21:03:00,
2013-07-23 17:09:00,90.7,70.7,29.63,SSE,158,0.7,3.6,52,0.00,,,0.10,WUHU216HW,2013-07-23 21:09:00,
2013-07-23 17:14:00,90.4,69.2,29.63,NNE,23,1.6,2.0,50,0.00,,,0.10,WUHU216HW,2013-07-23 21:14:00,
2013-07-23 17:19:00,90.4,69.2,29.63,SE,135,1.1,2.0,50,0.00,,,0.10,WUHU216HW,2013-07-23 21:19:00,
2013-07-23 17:25:00,90.7,69.6,29.63,ENE,68,1.1,3.4,50,0.00,,,0.10,WUHU216HW,2013-07-23 21:25:00,
2013-07-23 17:30:00,91.3,70.0,29.63,ESE,113,0.4,3.4,50,0.00,,,0.10,WUHU216HW,2013-07-23 21:30:00,
2013-07-23 17:35:00,91.8,69.8,29.63,South,180,2.2,4.0,49,0.00,,,0.10,WUHU216HW,2013-07-23 21:35:00,
2013-07-23 17:40:00,91.4,69.0,29.63,ENE,68,1.1,4.0,48,0.00,,,0.10,WUHU216HW,2013-07-23 21:40:00,
2013-07-23 17:46:00,91.4,69.0,29.62,North,0,1.1,1.6,48,0.00,,,0.10,WUHU216HW,2013-07-23 21:46:00,
2013-07-23 17:51:00,92.5,69.8,29.62,NE,45,0.9,1.6,48,0.00,,,0.10,WUHU216HW,2013-07-23 21:51:00,
2013-07-23 17:56:00,92.9,69.6,29.62,SW,225,1.8,1.8,47,0.00,,,0.10,WUHU216HW,2013-07-23 21:56:00,
2013-07-23 18:02:00,92.0,68.8,29.61,ESE,113,0.4,1.8,47,0.00,,,0.10,WUHU216HW,2013-07-23 22:02:00,
2013-07-23 18:07:00,89.8,68.1,29.61,ENE,68,2.7,2.7,49,0.00,,,0.10,WUHU216HW,2013-07-23 22:07:00,
2013-07-23 18:12:00,89.3,68.2,29.62,NW,315,1.8,5.1,50,0.00,,,0.10,WUHU216HW,2013-07-23 22:12:00,
2013-07-23 18:17:00,88.2,67.9,29.62,NE,45,1.8,5.1,51,0.00,,,0.10,WUHU216HW,2013-07-23 22:17:00,
2013-07-23 18:22:00,87.7,67.3,29.62,SSW,203,3.6,3.6,51,0.00,,,0.10,WUHU216HW,2013-07-23 22:22:00,
2013-07-23 18:27:00,87.1,67.4,29.62,WSW,248,1.6,3.6,52,0.00,,,0.10,WUHU216HW,2013-07-23 22:27:00,
2013-07-23 18:32:00,86.6,66.9,29.62,NNW,338,1.1,3.6,52,0.00,,,0.10,WUHU216HW,2013-07-23 22:32:00,
2013-07-23 18:37:00,86.4,67.2,29.62,ESE,113,0.4,1.1,53,0.00,,,0.10,WUHU216HW,2013-07-23 22:37:00,
2013-07-23 18:42:00,86.4,67.2,29.62,SW,225,1.1,1.1,53,0.00,,,0.10,WUHU216HW,2013-07-23 22:42:00,
2013-07-23 18:47:00,86.0,67.4,29.63,ESE,113,0.9,1.1,54,0.00,,,0.10,WUHU216HW,2013-07-23 22:47:00,
2013-07-23 18:53:00,86.0,67.4,29.63,SE,135,0.7,1.1,54,0.00,,,0.10,WUHU216HW,2013-07-23 22:53:00,
2013-07-23 18:58:00,86.0,67.4,29.63,South,180,0.4,0.9,54,0.00,,,0.10,WUHU216HW,2013-07-23 22:58:00,
2013-07-23 19:03:00,85.9,67.2,29.63,SW,225,0.2,0.7,54,0.00,,,0.10,WUHU216HW,2013-07-23 23:03:00,
2013-07-23 19:08:00,85.7,67.6,29.63,WSW,248,0.0,1.1,55,0.00,,,0.10,WUHU216HW,2013-07-23 23:08:00,
2013-07-23 19:13:00,85.5,67.5,29.64,SE,135,0.0,1.1,55,0.00,,,0.10,WUHU216HW,2013-07-23 23:13:00,
2013-07-23 19:18:00,85.3,67.3,29.64,NW,315,0.2,2.2,55,0.00,,,0.10,WUHU216HW,2013-07-23 23:18:00,
2013-07-23 19:24:00,85.1,67.1,29.64,ENE,68,2.2,2.2,55,0.00,,,0.10,WUHU216HW,2013-07-23 23:24:00,
2013-07-23 19:29:00,84.8,67.3,29.64,South,180,0.9,2.2,56,0.00,,,0.10,WUHU216HW,2013-07-23 23:29:00,
2013-07-23 19:34:00,84.6,67.1,29.64,NNW,338,0.0,0.9,56,0.00,,,0.10,WUHU216HW,2013-07-23 23:34:00,
2013-07-23 19:39:00,84.6,67.1,29.65,SSW,203,0.2,0.9,56,0.00,,,0.10,WUHU216HW,2013-07-23 23:39:00,
2013-07-23 19:44:00,84.4,67.1,29.64,SW,225,0.4,0.4,56,0.00,,,0.10,WUHU216HW,2013-07-23 23:44:00,
2013-07-23 19:49:00,84.2,66.9,29.64,ENE,68,0.4,1.1,56,0.00,,,0.10,WUHU216HW,2013-07-23 23:49:00,
2013-07-23 19:55:00,83.9,67.1,29.64,NE,45,0.0,1.1,57,0.00,,,0.10,WUHU216HW,2013-07-23 23:55:00,
2013-07-23 20:00:00,83.7,66.9,29.64,ENE,68,0.0,0.0,57,0.00,,,0.10,WUHU216HW,2013-07-24 00:00:00,
2013-07-23 20:05:00,83.5,66.7,29.64,SSE,158,0.0,0.0,57,0.00,,,0.10,WUHU216HW,2013-07-24 00:05:00,
2013-07-23 20:10:00,83.2,66.3,29.65,SSE,158,0.2,0.9,57,0.00,,,0.10,WUHU216HW,2013-07-24 00:10:00,
2013-07-23 20:15:00,83.2,66.3,29.65,SE,135,0.0,0.9,57,0.00,,,0.10,WUHU216HW,2013-07-24 00:15:00,
2013-07-23 20:20:00,82.8,66.0,29.65,South,180,0.0,0.2,57,0.00,,,0.10,WUHU216HW,2013-07-24 00:20:00,
2013-07-23 20:25:00,82.4,66.1,29.65,SSW,203,0.0,0.2,58,0.00,,,0.10,WUHU216HW,2013-07-24 00:25:00,
2013-07-23 20:30:00,82.4,66.1,29.65,North,0,0.0,0.0,58,0.00,,,0.10,WUHU216HW,2013-07-24 00:30:00,
2013-07-23 20:35:00,82.1,65.8,29.65,North,0,0.0,0.0,58,0.00,,,0.10,WUHU216HW,2013-07-24 00:35:00,
2013-07-23 20:41:00,81.7,66.0,29.65,NNE,23,0.0,0.0,59,0.00,,,0.10,WUHU216HW,2013-07-24 00:41:00,
2013-07-23 20:46:00,81.5,66.3,29.66,NNE,23,0.0,0.0,60,0.00,,,0.10,WUHU216HW,2013-07-24 00:46:00,
2013-07-23 20:51:00,81.2,66.0,29.66,NNE,23,0.0,0.0,60,0.00,,,0.10,WUHU216HW,2013-07-24 00:51:00,
2013-07-23 20:56:00,81.2,66.0,29.66,NNE,23,0.0,0.0,60,0.00,,,0.10,WUHU216HW,2013-07-24 00:56:00,
2013-07-23 21:01:00,80.6,66.0,29.66,NNE,23,0.0,0.0,61,0.00,,,0.10,WUHU216HW,2013-07-24 01:01:00,
2013-07-23 21:06:00,80.6,66.4,29.66,WNW,293,0.0,0.0,62,0.00,,,0.10,WUHU216HW,2013-07-24 01:06:00,
2013-07-23 21:11:00,80.5,66.2,29.66,WNW,293,0.0,0.0,62,0.00,,,0.10,WUHU216HW,2013-07-24 01:11:00,
2013-07-23 21:16:00,80.1,66.3,29.66,WNW,293,0.0,0.0,63,0.00,,,0.10,WUHU216HW,2013-07-24 01:16:00,
2013-07-23 21:21:00,79.9,66.3,29.66,WNW,293,0.0,0.0,63,0.00,,,0.10,WUHU216HW,2013-07-24 01:21:00,
2013-07-23 21:27:00,79.6,65.9,29.66,WNW,293,0.0,0.0,63,0.00,,,0.10,WUHU216HW,2013-07-24 01:27:00,
2013-07-23 21:32:00,79.6,66.3,29.66,WNW,293,0.0,0.0,64,0.00,,,0.10,WUHU216HW,2013-07-24 01:32:00,
2013-07-23 21:37:00,79.2,66.0,29.66,WNW,293,0.0,0.0,64,0.00,,,0.10,WUHU216HW,2013-07-24 01:37:00,
2013-07-23 21:42:00,79.0,66.3,29.66,WNW,293,0.0,0.0,65,0.00,,,0.10,WUHU216HW,2013-07-24 01:42:00,
2013-07-23 21:47:00,79.0,66.3,29.66,WNW,293,0.0,0.0,65,0.00,,,0.10,WUHU216HW,2013-07-24 01:47:00,
2013-07-23 21:52:00,78.8,66.1,29.66,WNW,293,0.0,0.0,65,0.00,,,0.10,WUHU216HW,2013-07-24 01:52:00,
2013-07-23 21:57:00,78.5,66.2,29.66,WNW,293,0.0,0.0,66,0.00,,,0.10,WUHU216HW,2013-07-24 01:57:00,
2013-07-23 22:03:00,78.3,66.0,29.66,WNW,293,0.0,0.0,66,0.00,,,0.10,WUHU216HW,2013-07-24 02:03:00,
2013-07-23 22:08:00,78.1,65.8,29.66,WNW,293,0.0,0.0,66,0.00,,,0.10,WUHU216HW,2013-07-24 02:08:00,
2013-07-23 22:13:00,78.1,65.8,29.66,WNW,293,0.0,0.0,66,0.00,,,0.10,WUHU216HW,2013-07-24 02:13:00,
2013-07-23 22:18:00,78.1,66.2,29.66,WNW,293,0.0,0.0,67,0.00,,,0.10,WUHU216HW,2013-07-24 02:18:00,
2013-07-23 22:23:00,78.1,66.2,29.66,WNW,293,0.0,0.0,67,0.00,,,0.10,WUHU216HW,2013-07-24 02:23:00,
2013-07-23 22:28:00,78.1,66.2,29.66,WNW,293,0.0,0.0,67,0.00,,,0.10,WUHU216HW,2013-07-24 02:28:00,
2013-07-23 22:34:00,78.1,66.2,29.66,WNW,293,0.0,0.0,67,0.00,,,0.10,WUHU216HW,2013-07-24 02:34:00,
2013-07-23 22:39:00,78.1,66.2,29.66,WNW,293,0.0,0.0,67,0.00,,,0.10,WUHU216HW,2013-07-24 02:39:00,
2013-07-23 22:44:00,77.9,66.5,29.66,NW,315,0.0,0.0,68,0.00,,,0.10,WUHU216HW,2013-07-24 02:44:00,
2013-07-23 22:49:00,77.9,66.5,29.66,North,0,0.0,0.0,68,0.00,,,0.10,WUHU216HW,2013-07-24 02:49:00,
2013-07-23 22:54:00,77.9,66.5,29.67,North,0,0.0,0.0,68,0.00,,,0.10,WUHU216HW,2013-07-24 02:54:00,
2013-07-23 23:00:00,77.6,66.3,29.67,NNE,23,0.0,0.2,68,0.00,,,0.10,WUHU216HW,2013-07-24 03:00:00,
2013-07-23 23:05:00,77.6,66.3,29.67,NNE,23,0.0,0.2,68,0.00,,,0.10,WUHU216HW,2013-07-24 03:05:00,
2013-07-23 23:10:00,77.6,66.6,29.67,NNE,23,0.0,0.0,69,0.00,,,0.10,WUHU216HW,2013-07-24 03:10:00,
2013-07-23 23:15:00,77.6,66.6,29.67,NNE,23,0.0,0.0,69,0.00,,,0.10,WUHU216HW,2013-07-24 03:15:00,
2013-07-23 23:20:00,77.4,66.5,29.67,NNE,23,0.0,0.0,69,0.00,,,0.10,WUHU216HW,2013-07-24 03:20:00,
2013-07-23 23:25:00,77.2,66.3,29.68,NNE,23,0.0,0.0,69,0.00,,,0.10,WUHU216HW,2013-07-24 03:25:00,
2013-07-23 23:30:00,77.0,66.6,29.68,NNE,23,0.0,0.0,70,0.00,,,0.10,WUHU216HW,2013-07-24 03:30:00,
2013-07-23 23:35:00,76.9,66.4,29.68,NNE,23,0.0,0.0,70,0.00,,,0.10,WUHU216HW,2013-07-24 03:35:00,
2013-07-23 23:40:00,76.9,66.4,29.68,NNE,23,0.0,0.0,70,0.00,,,0.10,WUHU216HW,2013-07-24 03:40:00,
2013-07-23 23:45:00,76.7,66.6,29.68,NNE,23,0.0,0.0,71,0.00,,,0.10,WUHU216HW,2013-07-24 03:45:00,
2013-07-23 23:50:00,76.5,66.4,29.68,NNE,23,0.0,0.0,71,0.00,,,0.10,WUHU216HW,2013-07-24 03:50:00,
2013-07-23 23:56:00,76.5,66.4,29.68,NNE,23,0.0,0.0,71,0.00,,,0.10,WUHU216HW,2013-07-24 03:56:00,